Regional Weather Roundup
Issued by NWS

Home | Current Version | Previous Version | Graphics & Text | Print | Product List | Glossary On
Versions: 1 2 3 4 5 6 7 8 9 10 11 12 13 14 15 16 17 18 19 20 21 22 23 24 25 26 27 28 29 30 31 32 33 34 35 36 37 38 39 40 41 42 43 44 45 46 47 48 49 50
000
ASUS45 KCYS 272310
RWRWY

WYOMING REGIONAL WEATHER ROUNDUP
NATIONAL WEATHER SERVICE CHEYENNE WY
500 PM MDT MON APR 27 2015

NOTE:  "FAIR" INDICATES FEW OR NO CLOUDS BELOW 12,000 FEET
WITH NO SIGNIFICANT WEATHER AND/OR OBSTRUCTIONS TO VISIBILITY.

WYZ001-280000-
YELLOWSTONE NATIONAL PARK

CITY           SKY/WX    TMP DP  RH WIND       PRES   REMARKS
LK YELLOWSTONE   N/A     43  21  41 VRB3      30.31S
W YELLOWSTONE  NOT AVBL

$$
WYZ002>013-054>058-071-098>099-280000-
NORTHERN WYOMING

CITY           SKY/WX    TMP DP  RH WIND       PRES   REMARKS
JACKSON        MOSUNNY   57  27  30 SW6       30.24S
CODY           PTSUNNY   54  34  47 E6        30.27S
GREYBULL       FAIR      57  33  40 VRB5      30.26F
WORLAND        FAIR      56  33  42 VRB5      30.27F
SHERIDAN       CLOUDY    52  35  52 E3        30.28F
BUFFALO        CLOUDY    47  35  63 S3        30.31S
GILLETTE       CLOUDY    50  35  56 N5        30.29S
HULETT         CLOUDY    46  36  66 N3        30.32S
NEWCASTLE      FAIR      46  37  71 W3        30.30F

$$
WYZ014>020-022>026-101>103-280000-
CENTRAL WYOMING

CITY           SKY/WX    TMP DP  RH WIND       PRES   REMARKS
BIG PINEY      CLOUDY    54  29  38 E8        30.24F
PINEDALE       FAIR      52  30  43 CALM      30.26S
DUBOIS         FAIR      50  32  50 SE7       30.25F
LANDER         CLOUDY    48  33  56 CALM      30.27F
RIVERTON       CLOUDY    49  34  56 S5        30.29S
CASPER         CLOUDY    46  35  65 E6        30.29F
DOUGLAS        CLOUDY    47  38  71 N5        30.30F

$$
WYZ021-027>030-104>119-280000-
SOUTHERN WYOMING

CITY           SKY/WX    TMP DP  RH WIND       PRES   REMARKS
EVANSTON       CLOUDY    52  30  43 E7        30.24F
KEMMERER       CLOUDY    50  32  50 SE3       30.26F
FORT BRIDGER   MOCLDY    52  32  46 E6        30.29F
ROCK SPRINGS   PTSUNNY   50  34  54 NE10      30.26S
DIXON          MOCLDY    55  36  48 N16G22    30.21S
RAWLINS        FAIR      50  34  54 NE10G18   30.25F
SARATOGA       CLOUDY    50  36  57 MISG      30.23S
LARAMIE        CLOUDY    43  34  70 E15       30.24S
CHEYENNE       CLOUDY    42  35  76 NE8       30.27F
TORRINGTON     CLOUDY    50  40  68 N8        30.27S
PINE BLUFFS    MOCLDY    50  34  53 N8        30.27S

$$



USA.gov is the U.S. government's official web portal to all federal, state and local government web resources and services.